North Andover, MA

3:30 AM EST on December 10, 2016 (GMT -0500)
Lawrence Municipal

Weather History for KLWM - December, 2012

Change the Weather History Date:

Wednesday, December 19, 2012

  Actual Average Record
Temperature  
Mean Temperature 41 °F -  
Max Temperature 45 °F 36 °F 55 °F (1954)
Min Temperature 37 °F 18 °F -6 °F (1942)
Degree Days  
Heating Degree Days 24    
Moisture  
Dew Point 33 °F    
Average Humidity 74    
Maximum Humidity 93    
Minimum Humidity 56    
Precipitation  
Precipitation 0.00 in - - ()
Sea Level Pressure  
Sea Level Pressure 29.65 in    
Wind  
Wind Speed 9 mph (NW)    
Max Wind Speed 16 mph    
Max Gust Speed 28 mph    
Visibility 9 miles    
Events      
Averages and records for this station are not official NWS values.
T = Trace of Precipitation, MM = Missing Value Source: NWS Daily Summary

Daily Weather History Graph

Daily Weather History Graph

Search for Another Location

Airport or City:

Trip Planner

Search our weather history database for the weather conditions in past years. The results will help you decide how hot, cold, wet, or windy it might be!

Date:

Astronomy

Dec. 19, 2012 Rise Set
Actual Time 7:10 AM EST 4:13 PM EST
Civil Twilight 6:38 AM EST 4:45 PM EST
Nautical Twilight 6:02 AM EST 5:20 PM EST
Astronomical Twilight 5:28 AM EST 5:55 PM EST
Moon 11:09 AM EST (12/19) 11:47 PM EST (12/19)
Length of Visible Light 10h 06m
Length of Day
9h 02m
Waxing Crescent, 45% of the Moon is Illuminated
Dec 19
Waxing Crescent
Dec 20
First Quarter
Dec 28
Full
Jan 4
Last Quarter
Jan 11
New

Hourly Weather History & Observations

Time (EST) Temp. Windchill Dew Point Humidity Pressure Visibility Wind Dir Wind Speed Gust Speed Precip Events Conditions
12:54 AM 41.0 °F 36.4 °F 37.9 °F 89% 29.46 in 10.0 mi WNW 6.9 mph - N/A   Overcast
1:51 AM 41.0 °F 37.1 °F 39.2 °F 93% 29.47 in 3.0 mi WNW 5.8 mph - N/A   Overcast
1:54 AM 41.0 °F 37.1 °F 39.0 °F 93% 29.47 in 3.0 mi WNW 5.8 mph - N/A   Overcast
2:37 AM 42.8 °F 39.3 °F 39.2 °F 87% 29.46 in 6.0 mi WNW 5.8 mph - N/A   Overcast
2:54 AM 42.1 °F 37.7 °F 39.0 °F 89% 29.46 in 7.0 mi WNW 6.9 mph - N/A   Overcast
3:14 AM 42.8 °F 38.6 °F 39.2 °F 87% 29.46 in 10.0 mi West 6.9 mph - N/A   Overcast
3:54 AM 42.1 °F 36.1 °F 37.9 °F 85% 29.47 in 9.0 mi WNW 10.4 mph - N/A   Overcast
4:18 AM 41.0 °F 35.2 °F 37.4 °F 87% 29.47 in 6.0 mi WNW 9.2 mph - 0.00 in   Overcast
4:54 AM 41.0 °F 35.2 °F 37.0 °F 86% 29.49 in 6.0 mi WNW 9.2 mph 19.6 mph 0.00 in   Overcast
5:01 AM 39.2 °F 32.0 °F 37.4 °F 93% 29.48 in 10.0 mi WNW 11.5 mph - N/A   Overcast
5:54 AM 39.9 °F 33.4 °F 35.1 °F 83% 29.50 in 10.0 mi WNW 10.4 mph 16.1 mph N/A   Overcast
6:08 AM 39.2 °F 32.5 °F 35.6 °F 87% 29.50 in 10.0 mi WNW 10.4 mph - N/A   Overcast
6:54 AM 39.9 °F 33.4 °F 34.0 °F 79% 29.52 in 10.0 mi WNW 10.4 mph 21.9 mph 0.00 in   Overcast
7:54 AM 39.9 °F 32.9 °F 32.0 °F 73% 29.55 in 10.0 mi WNW 11.5 mph 21.9 mph N/A   Overcast
8:54 AM 39.9 °F 33.4 °F 32.0 °F 73% 29.57 in 10.0 mi NW 10.4 mph 25.3 mph N/A   Overcast
9:54 AM 42.1 °F 35.2 °F 30.9 °F 65% 29.60 in 10.0 mi NW 12.7 mph 23.0 mph N/A   Overcast
10:54 AM 45.0 °F 38.5 °F 32.0 °F 60% 29.60 in 10.0 mi NW 13.8 mph 25.3 mph N/A   Partly Cloudy
11:54 AM 45.0 °F 37.9 °F 30.9 °F 58% 29.62 in 10.0 mi NW 16.1 mph 21.9 mph N/A   Overcast
12:54 PM 45.0 °F 38.2 °F 30.0 °F 56% 29.66 in 10.0 mi NW 15.0 mph 23.0 mph N/A   Overcast
1:54 PM 44.1 °F 37.4 °F 30.0 °F 58% 29.70 in 10.0 mi NW 13.8 mph 27.6 mph N/A   Overcast
2:54 PM 44.1 °F 37.1 °F 30.0 °F 58% 29.74 in 10.0 mi NW 15.0 mph 23.0 mph N/A   Overcast
3:54 PM 43.0 °F 36.0 °F 30.0 °F 60% 29.78 in 10.0 mi NW 13.8 mph 20.7 mph N/A   Overcast
4:54 PM 41.0 °F 34.7 °F 28.9 °F 62% 29.83 in 10.0 mi NNW 10.4 mph 19.6 mph N/A   Mostly Cloudy
5:54 PM 41.0 °F 34.3 °F 28.9 °F 62% 29.86 in 10.0 mi NNW 11.5 mph 20.7 mph N/A   Overcast
6:54 PM 39.9 °F 33.4 °F 28.9 °F 65% 29.91 in 10.0 mi NW 10.4 mph 20.7 mph N/A   Mostly Cloudy
7:54 PM 39.0 °F 34.0 °F 28.9 °F 67% 29.95 in 10.0 mi NNW 6.9 mph - N/A   Mostly Cloudy
8:54 PM 39.0 °F 33.4 °F 28.9 °F 67% 29.98 in 10.0 mi NNW 8.1 mph - N/A   Overcast
9:54 PM 39.0 °F 34.8 °F 28.0 °F 65% 30.00 in 10.0 mi NNW 5.8 mph - N/A   Overcast
10:54 PM 37.9 °F 32.1 °F 28.0 °F 68% 30.02 in 10.0 mi NNW 8.1 mph - N/A   Overcast
11:54 PM 37.9 °F 34.4 °F 28.0 °F 68% 30.05 in 10.0 mi NW 4.6 mph - N/A   Overcast